Temp
20 19 19 19 18 18 19 19 19 19 18 19 19 18 19 19 18 18 18 19 18 19 19 19 19 19 19 21 22 22 22 23 23 23 22 21 21 21 19 19 18 18 19
21 20 20 19 19 19 18 19 18 18 19 18 18 18 18 18 18 18 18 19 19 19 19 19 19 20 19 19 20 20 21 21 21 21 21 21 21 19 19 18 17 18 18
21 20 20 20 19 20 19 19 18 18 18 19 18 18 18 18 18 18 18 18 18 19 19 19 19 19 19 19 19 19 20 21 20 19 19 20 21 20 18 18 18 17 17
21 21 20 20 20 19 20 19 19 19 18 18 18 18 18 18 19 18 18 19 19 19 18 18 19 19 19 18 19 19 19 19 19 19 19 20 20 19 19 19 18 18 17
20 19 20 19 20 20 19 19 19 19 19 18 18 18 18 18 19 19 19 19 18 18 18 19 19 19 18 19 18 18 18 18 18 19 19 19 19 19 19 19 18 18 18
18 18 20 19 18 19 19 18 18 18 18 18 18 18 18 18 19 19 19 19 18 18 18 18 18 19 19 19 19 19 18 18 18 18 18 18 19 18 18 18 18 18 18
18 18 18 18 18 18 18 18 18 18 18 18 18 18 18 18 19 19 19 18 18 18 18 18 18 19 19 19 18 18 19 18 18 18 18 18 18 18 18 18 18 17 17
17 16 17 17 17 17 18 18 18 18 18 18 18 18 18 18 18 18 18 18 17 17 18 18 18 18 18 19 19 18 18 18 19 19 18 18 18 18 18 17 17 17 16
17 16 16 16 16 16 16 17 17 17 17 17 17 17 17 18 18 18 18 17 17 18 18 18 18 18 18 19 18 18 18 18 18 18 18 18 17 17 17 17 16 15 15
17 16 15 16 16 16 16 16 16 17 17 16 16 16 17 17 17 17 18 18 17 18 18 18 18 18 18 19 18 18 18 17 18 18 18 17 17 16 16 16 15 15 15
16 17 17 16 15 16 16 15 15 16 16 16 15 15 15 16 16 17 17 17 17 16 17 17 17 18 18 18 17 18 18 18 17 16 16 16 15 15 15 15 14 14 13
15 15 16 16 16 15 15 15 15 14 14 15 15 15 14 15 15 16 16 16 17 17 16 16 16 16 17 17 17 17 17 17 15 15 15 15 14 14 13 12 12 12 12
15 15 15 15 14 15 15 14 15 14 14 15 15 14 14 14 14 14 15 15 14 15 16 15 15 15 15 16 15 15 14 15 14 15 14 13 13 13 12 12 12 12 11
14 14 14 14 14 14 14 14 13 13 13 14 14 13 13 14 14 14 14 15 14 14 14 14 14 14 13 13 13 13 13 13 13 13 13 12 12 12 12 12 12 12 11
14 14 14 14 14 14 14 14 14 14 13 13 13 13 12 13 13 13 13 13 13 13 13 13 13 13 13 13 13 13 13 12 12 12 11 11 11 11 10 11 11 10 10
14 14 13 13 13 13 14 14 14 14 13 13 13 13 14 13 13 13 13 13 13 13 13 13 13 12 13 12 12 12 12 12 11 11 11 11 10 10 10 10 9 9 9
13 13 13 13 12 12 13 13 13 13 13 13 13 13 13 13 13 13 13 13 13 13 13 13 13 12 12 12 11 11 11 11 11 10 10 10 10 10 9 9 9 10 10
13 13 13 13 13 13 13 12 12 12 12 13 13 13 13 13 13 13 13 12 12 12 12 12 11 11 11 11 11 11 11 10 10 10 10 10 10 9 9 10 10 10 11
13 13 12 13 12 12 12 12 12 12 11 11 12 12 12 13 12 12 12 12 11 11 11 11 11 11 10 10 10 10 10 10 10 9 9 9 9 10 10 11 11 10 10
13 12 12 12 12 13 13 13 13 12 12 12 13 12 13 13 12 11 12 13 13 14 13 13 12 12 11 10 10 9 9 9 9 9 10 10 10 11 11 11 11 11 11
14 13 13 13 14 15 15 15 15 15 15 15 14 13 12 13 14 14 13 13 13 13 12 12 12 11 11 10 10 11 11 11 11 11 10 10 10 11 10 11 11 11 11
16 15 15 16 16 15 16 15 15 16 15 15 14 13 13 13 14 14 14 13 13 13 12 12 12 12 12 11 11 11 11 11 11 11 11 11 10 11 11 11 11 11 11
16 16 16 16 16 15 15 16 16 16 16 16 16 14 13 14 14 14 13 13 13 13 12 12 12 12 11 11 11 11 12 12 11 11 11 11 11 11 11 11 11 11 11
16 16 16 16 15 15 16 16 16 15 16 16 16 15 15 15 15 14 14 14 13 13 13 12 12 12 12 11 11 11 11 11 11 10 10 11 11 10 10 11 11 11 10
17 16 16 16 16 15 16 15 16 16 16 16 16 16 16 15 15 15 14 14 14 13 13 12 12 12 11 11 12 11 11 11 10 10 10 10 10 10 10 11 11 10 10
16 17 16 16 16 16 16 16 16 16 16 16 16 16 16 15 15 15 14 14 14 14 13 13 13 12 12 11 11 11 11 10 10 10 10 10 10 10 10 10 10 10 9
Height
1536 1540 1544 1547 1550 1553 1557 1560 1562 1565 1564 1568 1571 1573 1574 1577 1578 1579 1580 1580 1579 1582 1583 1583 1584 1585 1586 1585 1584 1584 1583 1583 1581 1581 1580 1578 1577 1577 1578 1576 1574 1573 1571
1531 1535 1539 1543 1547 1549 1553 1556 1559 1561 1564 1566 1568 1569 1571 1574 1575 1575 1576 1578 1579 1579 1581 1581 1582 1582 1582 1582 1582 1581 1581 1581 1580 1578 1579 1578 1576 1575 1574 1573 1573 1574 1568
1526 1530 1535 1537 1541 1544 1547 1551 1553 1556 1559 1562 1564 1565 1568 1569 1571 1571 1572 1573 1574 1575 1577 1577 1577 1578 1578 1579 1578 1577 1577 1577 1575 1575 1575 1575 1573 1572 1571 1570 1569 1569 1568
1519 1523 1528 1531 1535 1540 1543 1546 1549 1551 1553 1556 1558 1561 1563 1565 1567 1568 1569 1570 1570 1570 1572 1572 1572 1573 1574 1573 1573 1573 1573 1573 1573 1571 1571 1571 1569 1568 1566 1565 1564 1565 1564
1514 1518 1522 1517 1530 1534 1537 1541 1544 1546 1548 1550 1552 1554 1557 1560 1561 1563 1563 1565 1566 1565 1566 1567 1568 1568 1568 1569 1568 1568 1568 1568 1568 1566 1565 1565 1564 1563 1562 1561 1560 1561 1560
1509 1515 1517 1520 1525 1528 1532 1534 1537 1539 1541 1543 1546 1548 1549 1553 1555 1556 1558 1560 1560 1560 1561 1562 1563 1563 1563 1562 1562 1562 1563 1563 1562 1562 1561 1560 1558 1558 1557 1557 1557 1557 1559
1506 1509 1511 1515 1519 1523 1527 1529 1531 1533 1536 1537 1539 1542 1543 1545 1548 1550 1550 1553 1555 1555 1555 1556 1557 1559 1559 1558 1557 1557 1557 1557 1557 1556 1555 1555 1554 1553 1552 1553 1553 1554 1553
1503 1506 1504 1509 1513 1517 1520 1524 1527 1529 1530 1532 1534 1536 1538 1540 1542 1543 1544 1546 1547 1548 1550 1550 1550 1551 1551 1550 1551 1551 1551 1551 1549 1552 1550 1549 1549 1549 1548 1548 1547 1547 1547
1501 1497 1495 1507 1510 1512 1515 1519 1522 1524 1525 1527 1529 1531 1532 1533 1534 1536 1538 1540 1541 1541 1543 1543 1544 1544 1544 1545 1545 1545 1545 1545 1544 1545 1545 1544 1543 1542 1542 1542 1542 1540 1541
1502 1501 1500 1504 1507 1509 1512 1516 1517 1519 1521 1522 1523 1525 1525 1527 1528 1530 1532 1534 1536 1537 1537 1537 1536 1538 1537 1538 1539 1539 1539 1539 1537 1537 1537 1536 1534 1533 1534 1534 1535 1535 1535
1503 1502 1501 1502 1509 1508 1509 1512 1514 1515 1516 1518 1518 1519 1520 1522 1523 1525 1526 1528 1529 1530 1531 1531 1531 1531 1532 1532 1533 1533 1533 1533 1532 1531 1530 1529 1529 1528 1528 1529 1529 1530 1530
1503 1504 1505 1506 1507 1508 1509 1509 1512 1513 1514 1514 1515 1514 1515 1516 1517 1519 1521 1522 1524 1524 1525 1524 1524 1525 1526 1526 1526 1527 1526 1526 1526 1527 1527 1526 1525 1525 1525 1525 1525 1524 1526
1502 1502 1504 1504 1504 1506 1509 1510 1510 1510 1512 1510 1511 1512 1512 1512 1512 1513 1515 1516 1518 1518 1517 1519 1518 1520 1521 1522 1522 1522 1523 1522 1523 1523 1523 1523 1523 1522 1524 1523 1525 1525 1527
1502 1502 1503 1504 1505 1506 1506 1508 1508 1508 1509 1508 1509 1511 1510 1511 1512 1512 1513 1512 1516 1515 1515 1514 1515 1517 1519 1520 1519 1519 1519 1520 1521 1521 1521 1521 1521 1523 1522 1523 1522 1524 1525
1500 1501 1502 1503 1504 1505 1505 1506 1507 1508 1509 1508 1509 1511 1511 1510 1512 1512 1512 1512 1512 1515 1515 1515 1516 1516 1517 1520 1520 1520 1520 1521 1522 1522 1523 1522 1521 1523 1523 1524 1525 1526 1526
1500 1501 1503 1504 1504 1505 1505 1506 1507 1508 1509 1509 1510 1511 1511 1512 1512 1513 1514 1515 1514 1515 1516 1517 1519 1518 1518 1519 1520 1519 1520 1522 1522 1522 1523 1523 1522 1523 1525 1525 1526 1527 1528
1501 1502 1503 1505 1506 1505 1506 1507 1509 1509 1510 1511 1511 1511 1512 1512 1514 1514 1515 1516 1515 1516 1518 1519 1519 1519 1519 1519 1519 1519 1520 1520 1520 1520 1523 1523 1523 1524 1525 1526 1528 1529 1530
1501 1502 1503 1504 1505 1506 1507 1509 1510 1509 1511 1510 1510 1511 1512 1513 1512 1513 1514 1515 1517 1517 1517 1517 1518 1518 1518 1517 1517 1518 1519 1518 1519 1521 1522 1524 1525 1526 1527 1529 1529 1529 1530
1502 1503 1505 1506 1507 1508 1508 1510 1511 1511 1512 1512 1511 1512 1511 1511 1512 1513 1514 1516 1517 1518 1518 1518 1518 1518 1519 1519 1518 1518 1519 1519 1519 1523 1524 1526 1528 1527 1529 1529 1528 1528 1528
1502 1504 1506 1507 1507 1508 1510 1510 1509 1512 1511 1512 1512 1515 1512 1512 1513 1515 1516 1518 1519 1519 1520 1520 1521 1521 1521 1520 1520 1521 1521 1520 1522 1524 1526 1526 1527 1528 1528 1529 1529 1529 1529
1504 1504 1505 1506 1507 1509 1510 1511 1512 1512 1513 1514 1515 1513 1513 1514 1517 1517 1519 1518 1519 1519 1519 1520 1519 1519 1520 1521 1521 1522 1523 1524 1524 1524 1524 1525 1525 1526 1526 1528 1528 1528 1528
1504 1506 1506 1507 1508 1510 1510 1511 1511 1512 1513 1514 1513 1512 1513 1513 1515 1517 1518 1518 1519 1518 1519 1519 1520 1520 1520 1521 1520 1521 1522 1523 1523 1523 1524 1525 1525 1525 1525 1526 1526 1526 1526
1503 1504 1506 1506 1508 1508 1510 1510 1510 1511 1512 1513 1513 1512 1513 1515 1515 1516 1516 1518 1517 1518 1518 1518 1519 1519 1520 1520 1520 1520 1521 1521 1521 1522 1523 1524 1524 1524 1524 1526 1526 1525 1525
1502 1504 1505 1506 1507 1508 1509 1509 1510 1510 1510 1511 1511 1512 1514 1515 1515 1514 1515 1517 1517 1518 1519 1517 1517 1518 1519 1519 1520 1519 1520 1520 1520 1520 1522 1523 1523 1523 1523 1524 1524 1523 1523
1500 1502 1503 1504 1505 1507 1508 1508 1508 1508 1509 1510 1511 1511 1511 1511 1512 1513 1515 1516 1516 1517 1517 1515 1515 1517 1518 1518 1519 1519 1518 1518 1519 1520 1521 1522 1522 1522 1523 1522 1522 1521 1521
1499 1500 1501 1502 1503 1504 1504 1505 1505 1506 1506 1507 1507 1508 1509 1509 1510 1511 1512 1513 1513 1513 1513 1513 1513 1515 1516 1516 1517 1517 1517 1517 1518 1519 1519 1521 1521 1521 1521 1520 1519 1519 1519
Wind_Speed
22 22 19 20 20 23 22 21 21 21 14 9 17 12 13 13 13 12 12 18 13 8 12 13 10 12 13 13 13 15 14 14 17 16 13 15 16 20 14 16 14 14 14
25 24 23 21 20 21 23 24 24 21 19 17 15 16 14 14 15 17 12 11 12 11 13 13 13 14 15 13 14 15 16 18 17 18 16 15 17 14 15 13 10 9 17
25 25 23 23 23 21 22 21 22 23 22 20 19 17 16 14 14 13 13 13 13 15 15 18 18 14 17 15 18 17 18 15 14 15 17 15 16 15 14 14 12 10 13
23 27 25 24 21 21 20 21 21 23 22 21 21 20 18 15 15 15 15 15 15 16 15 18 18 14 17 19 20 21 19 20 18 19 18 17 17 18 20 17 16 14 14
29 23 26 21 23 22 22 22 21 22 22 22 22 22 21 18 18 19 18 17 16 16 15 16 16 17 19 21 22 19 18 20 20 20 22 21 23 21 19 14 14 12 14
28 29 26 26 23 23 25 24 25 25 24 25 24 24 22 20 19 21 21 17 16 17 15 15 16 21 21 20 20 21 24 25 25 23 21 21 21 18 17 15 16 11 10
24 22 22 20 18 19 20 22 24 25 23 24 25 25 25 22 21 24 23 22 19 20 20 18 16 17 18 17 20 22 20 21 24 24 25 23 19 17 16 15 13 14 16
14 18 14 15 16 14 19 20 19 21 24 24 25 25 25 24 24 24 26 27 22 22 22 23 24 22 22 24 23 19 19 20 20 16 19 21 23 22 18 17 17 17 19
5 5 2 8 8 8 12 14 16 18 21 22 25 26 25 24 24 23 26 23 20 22 20 21 24 21 22 23 21 21 21 21 21 20 22 24 24 26 24 24 21 18 18
10 8 3 4 9 11 10 10 13 16 18 16 14 20 22 18 21 21 19 20 16 18 22 22 24 24 26 24 23 22 23 22 23 23 25 29 30 29 26 24 21 22 23
7 2 8 8 11 8 9 10 10 11 13 15 19 20 18 17 17 14 13 16 18 16 16 20 22 23 21 22 22 23 24 23 23 23 23 22 17 15 14 16 18 17 19
7 9 11 14 15 9 9 12 13 10 9 9 11 11 15 19 22 22 21 19 19 15 16 19 21 22 19 19 20 19 18 16 15 15 15 16 16 13 12 10 8 5 5
10 9 10 12 9 9 10 9 9 9 10 7 9 10 11 11 13 15 19 21 19 16 12 15 18 18 16 14 14 12 11 10 11 12 12 10 8 6 3 3 1 2 3
8 6 7 7 7 7 5 3 4 3 2 3 4 5 5 5 6 6 7 6 8 7 7 3 6 6 3 2 3 5 4 2 2 3 3 3 3 2 2 3 3 3 1
8 7 6 6 5 5 5 4 3 4 6 5 4 3 4 2 2 2 2 3 3 1 2 4 3 4 5 5 5 3 2 1 1 2 3 3 4 5 3 2 3 1 2
10 6 5 3 4 5 5 4 4 4 5 7 6 5 4 5 5 7 8 8 7 5 5 5 5 5 4 3 3 2 4 5 5 5 4 3 3 3 2 2 3 4 3
9 11 9 7 6 6 7 6 5 6 6 5 3 3 2 2 3 3 3 2 1 1 2 3 3 4 4 3 3 3 3 3 3 3 3 4 3 3 6 3 3 1 2
6 7 6 6 7 8 6 5 5 4 3 5 5 4 2 3 3 4 5 4 1 2 2 2 2 2 3 2 2 3 3 3 4 3 3 3 5 4 1 2 3 3 3
8 6 7 4 6 6 6 4 4 5 5 4 2 2 3 4 4 5 8 7 3 0 1 3 2 2 3 4 2 3 2 2 3 3 3 3 4 4 4 4 4 4 5
8 10 7 5 4 4 4 5 5 5 4 2 4 3 4 6 5 2 3 3 4 3 4 4 4 3 3 3 3 3 4 4 3 4 5 4 3 3 3 3 3 4 4
5 5 9 8 3 5 5 5 5 5 5 5 5 7 8 6 4 4 3 4 3 3 4 4 4 4 4 4 5 5 4 3 4 5 4 4 4 3 3 3 4 4 5
6 5 5 6 6 6 5 5 5 4 4 4 3 2 5 5 3 3 4 3 3 4 3 4 3 2 4 4 5 5 5 5 4 4 4 4 3 3 3 3 4 5 5
7 7 7 6 6 6 6 4 4 4 4 4 5 2 2 3 3 3 3 4 5 4 5 4 5 5 5 4 5 5 5 5 5 5 4 4 3 3 3 4 4 4 5
8 8 8 7 7 5 5 4 4 5 5 5 5 5 5 5 4 4 4 4 5 5 6 5 6 6 7 6 6 5 6 6 5 4 5 4 4 4 3 4 3 4 4
10 9 9 9 9 8 7 7 7 7 7 6 7 8 7 6 6 7 7 7 7 7 7 6 6 6 8 8 7 7 11 5 7 8 3 3 3 4 4 5 5 5 6
10 11 11 10 10 10 11 10 10 9 9 11 10 9 9 9 9 10 10 11 11 10 9 8 8 9 9 9 10 12 10 8 6 5 4 5 6 7 7 9 9 9 8
Wind_Direction
206 210 209 214 214 206 208 215 221 218 244 218 236 225 230 233 240 254 249 237 254 229 252 261 262 264 270 272 277 277 272 275 280 280 294 309 304 294 275 277 284 293 296
212 211 211 214 213 215 217 220 224 224 228 235 242 242 240 239 240 241 237 236 253 255 257 257 262 262 269 272 279 275 276 275 282 286 278 283 290 294 290 275 265 269 278
210 210 214 213 214 216 218 219 222 222 227 231 236 230 234 241 237 243 227 237 244 252 258 258 260 256 251 256 259 269 278 278 269 274 272 275 281 283 273 282 271 267 250
199 205 212 211 218 220 218 220 222 226 231 228 226 226 230 233 237 239 240 244 251 253 260 262 250 254 264 266 274 267 266 265 268 267 268 272 275 274 280 272 276 272 254
196 208 217 201 214 220 223 218 224 225 230 229 226 227 230 231 235 245 242 242 245 256 250 249 262 260 250 261 270 276 271 265 269 274 275 275 278 276 278 277 275 289 273
208 211 212 215 215 214 221 220 225 224 223 225 223 225 231 234 237 240 238 239 248 249 247 255 255 259 273 283 284 279 269 268 272 273 274 281 282 277 280 276 268 257 273
206 208 203 206 211 220 222 227 231 231 226 229 224 225 227 239 235 239 245 243 245 257 263 266 266 264 272 272 278 272 271 271 273 275 275 275 278 277 275 278 276 269 260
197 219 202 194 198 211 221 227 237 239 236 232 232 229 228 232 236 243 246 246 246 250 255 257 261 262 263 260 268 276 274 277 275 276 279 271 274 278 274 279 279 278 268
158 5 203 245 226 223 230 236 237 242 240 240 239 236 236 237 237 238 244 247 250 258 260 258 254 261 263 270 274 277 278 275 272 277 277 273 268 271 268 279 275 272 261
76 92 318 298 265 243 247 239 233 234 240 238 230 234 236 232 235 240 252 249 250 251 254 262 262 263 267 276 277 275 277 276 274 271 270 270 272 271 264 264 263 252 254
261 210 44 308 273 268 235 238 236 231 237 245 256 255 252 244 246 243 242 248 250 247 258 261 261 268 271 270 269 271 275 272 271 270 268 271 276 276 260 259 261 260 266
228 230 225 224 244 229 230 242 244 250 239 244 266 270 270 262 258 254 259 269 275 284 257 258 265 273 273 269 272 277 273 270 266 261 266 265 264 268 272 275 275 271 276
210 216 220 221 232 224 226 238 242 242 248 242 246 256 265 271 270 265 265 273 275 264 261 268 270 270 268 260 263 259 260 257 258 254 258 264 270 270 247 162 227 283 291
181 188 166 180 189 187 173 163 205 238 244 249 249 271 274 277 269 254 256 254 252 253 237 248 248 238 264 267 236 227 241 244 245 239 222 151 110 153 203 229 240 224 217
185 178 162 166 169 183 186 211 237 212 213 183 161 159 130 90 140 143 125 129 134 129 116 124 138 129 113 99 95 101 119 170 228 230 210 196 201 214 215 227 192 218 42
195 177 155 153 148 189 201 217 177 169 169 145 136 125 116 122 118 115 115 117 117 115 124 135 147 144 148 169 183 205 237 240 237 232 229 217 216 182 171 196 150 118 115
178 189 187 172 186 173 170 163 170 158 161 171 175 182 199 205 203 170 157 162 146 185 213 199 203 221 225 225 231 237 255 254 215 186 186 178 166 149 143 136 85 104 158
175 177 175 178 177 174 165 171 177 195 213 238 231 221 203 180 191 188 190 192 194 219 208 221 233 264 259 243 218 222 196 162 153 165 165 167 141 138 161 212 217 214 205
175 165 149 147 177 188 183 169 182 185 186 208 183 192 154 132 126 131 124 114 133 92 119 83 89 55 113 170 179 156 150 138 143 153 166 182 200 192 211 205 226 203 202
178 172 165 171 175 177 177 187 176 164 165 132 109 180 128 106 80 93 102 144 173 169 169 169 169 172 172 166 157 173 163 177 174 165 187 196 202 210 249 250 237 246 249
173 183 158 184 171 163 165 169 164 160 160 159 171 182 179 143 184 176 172 159 152 163 148 165 163 168 172 175 176 175 189 195 198 191 201 196 217 215 231 243 246 261 265
180 180 167 173 174 172 174 172 169 173 178 177 182 124 161 144 175 189 191 193 204 172 191 183 176 167 205 207 197 184 198 206 209 203 209 211 222 217 227 243 252 259 263
188 183 181 182 182 188 185 185 185 190 191 192 190 180 157 163 193 199 206 201 210 210 216 205 219 215 231 212 212 211 203 205 209 198 202 202 218 221 240 253 266 273 276
199 198 199 200 201 197 203 209 219 227 221 223 223 227 233 233 231 232 223 233 230 230 231 232 225 227 233 216 220 204 195 190 182 188 181 205 212 250 225 253 263 274 292
213 213 215 217 218 219 229 233 238 241 237 238 237 238 241 242 243 240 245 242 243 240 243 239 242 244 229 220 208 205 202 205 173 183 158 201 222 241 241 257 271 291 290
218 222 223 225 227 232 238 239 241 244 246 241 242 244 245 244 246 247 245 241 241 249 250 253 249 238 234 228 211 222 222 215 211 212 203 240 257 256 261 263 274 267 281